Wind_Speed
9 17 22 22 20 17 17 17 15 14 11 14 16 14 19 12 11 12 9 8 11 11 11 10 10 11 12 13 13 12 11 10 9 8 8 8 7 7 7 7 6 6 6
13 16 22 26 24 22 18 23 19 16 12 18 19 18 19 22 16 15 12 10 11 11 10 10 11 11 12 12 11 11 10 10 9 8 8 6 6 6 6 7 8 7 8
15 17 22 27 28 25 25 25 22 18 18 19 22 19 14 15 14 16 13 11 12 12 11 11 13 14 13 13 12 10 9 9 7 6 4 5 5 6 7 8 8 9 9
15 20 21 28 33 31 30 29 28 26 25 25 25 24 18 14 15 15 14 11 13 13 12 13 14 13 12 12 11 10 8 6 4 3 3 4 5 8 9 9 10 10 10
19 25 24 23 29 31 29 31 24 17 30 33 28 27 23 22 19 16 14 12 15 14 14 14 14 13 11 10 8 7 5 5 3 4 4 5 7 9 9 9 9 9 9
15 21 26 24 25 28 27 34 29 27 41 40 32 27 25 24 24 18 13 14 16 15 16 15 13 12 10 8 7 5 4 3 3 4 6 7 8 8 8 8 8 8 8
18 21 22 23 26 26 28 32 29 29 14 34 29 26 25 22 21 18 14 15 16 16 17 15 14 12 9 7 6 5 4 4 4 5 6 7 8 8 8 9 9 8 8
20 22 25 22 24 25 24 24 27 24 25 30 31 30 26 24 21 21 18 17 18 19 17 15 13 11 10 8 6 5 5 5 5 6 6 7 9 9 9 9 8 7 6
22 21 16 20 22 25 25 25 24 25 20 30 37 37 33 26 26 22 19 19 19 19 18 16 14 13 10 8 8 7 6 6 7 7 8 7 8 8 8 7 7 7 8
21 19 18 18 19 24 24 25 23 18 17 10 35 39 37 34 29 26 23 20 21 21 19 17 15 13 11 10 8 7 6 6 7 6 7 9 9 8 6 6 7 8 7
19 19 19 19 18 9 24 30 23 19 16 18 29 43 34 35 35 28 26 23 23 21 20 17 15 11 9 7 7 6 6 6 7 7 7 7 6 5 7 7 7 6 5
18 18 18 20 23 21 19 21 19 18 19 23 37 55 44 40 32 31 29 26 25 23 20 17 13 9 6 6 4 6 7 8 7 8 7 5 6 6 7 6 5 3 2
23 18 18 19 22 19 23 19 17 22 20 27 42 46 42 45 39 37 30 28 27 24 20 17 12 9 5 6 5 6 7 7 7 8 6 6 7 6 5 5 3 3 4
22 18 16 17 17 15 17 17 17 21 27 32 45 35 41 44 37 32 32 30 26 22 17 13 10 7 6 5 6 5 6 6 7 6 7 8 8 6 4 2 3 4 4
22 10 12 14 14 17 21 14 17 18 26 37 51 40 43 39 37 33 32 29 26 21 16 12 10 5 4 4 5 7 5 6 7 8 9 8 5 3 3 4 3 4 5
19 10 12 14 16 13 12 12 10 23 35 49 42 44 42 36 32 33 31 30 23 19 15 9 5 7 7 8 8 7 6 8 8 8 8 6 5 4 4 5 7 8 9
17 10 9 13 15 13 13 9 15 34 40 36 42 43 34 34 32 32 34 31 30 21 14 13 12 8 7 8 7 6 6 7 7 7 8 7 6 6 8 9 9 10 11
16 12 8 11 13 18 12 18 27 31 30 30 47 46 37 36 36 34 33 34 21 19 19 15 11 8 7 6 6 8 7 6 5 6 8 9 10 10 12 14 14 15 16
14 12 8 12 16 13 16 23 29 31 24 29 38 52 49 38 33 33 30 17 22 24 21 15 13 10 5 5 6 7 7 6 6 7 8 11 12 14 16 18 19 20 22
14 12 14 16 17 19 17 21 28 26 29 28 44 36 38 39 33 23 25 30 30 23 17 14 11 9 10 10 8 8 8 8 9 10 12 14 17 18 19 22 22 23 25
12 13 14 16 20 19 22 21 21 30 36 35 44 44 43 37 31 29 35 32 25 17 15 13 10 8 8 12 10 12 13 14 13 14 16 19 20 20 24 26 27 27 24
9 8 17 18 17 21 22 18 15 32 38 37 48 49 52 44 38 38 32 17 16 18 17 16 11 11 12 15 15 17 17 18 14 17 17 19 19 25 26 29 25 26 24
4 6 12 18 14 21 22 17 21 36 41 40 37 31 45 46 41 36 28 26 22 21 20 16 15 14 15 18 19 22 21 21 18 22 25 21 17 18 23 28 27 29 29
1 4 2 13 16 20 24 20 24 24 32 37 33 28 39 45 40 33 28 27 25 23 20 18 18 17 22 21 24 26 25 26 25 28 27 34 22 24 23 28 29 27 32
5 4 3 6 8 18 22 21 23 22 26 22 28 28 35 41 35 33 31 29 28 24 21 21 22 23 23 26 28 28 28 30 30 32 32 31 24 30 24 25 29 33 33
9 7 6 6 6 9 21 26 27 25 24 31 26 26 30 38 39 36 34 31 28 28 28 26 26 27 26 28 29 31 33 32 30 31 32 28 30 29 31 26 34 32 28
Wind_Direction
246 222 226 229 231 226 213 205 184 186 217 239 223 229 227 218 238 250 250 215 188 183 181 181 171 164 156 153 150 148 148 143 135 135 132 137 143 144 144 133 126 110 103
273 239 224 222 227 224 205 197 196 206 227 232 221 212 205 233 231 245 253 230 196 190 185 184 171 170 158 155 150 146 137 130 127 128 133 128 132 140 131 121 113 118 116
268 237 230 230 234 230 207 207 206 220 220 224 215 214 209 229 236 248 252 235 198 191 187 184 180 169 160 156 145 134 126 123 123 114 115 114 119 120 111 116 115 112 104
258 246 244 237 234 231 220 217 217 219 221 220 213 212 220 221 233 244 253 226 200 190 188 191 179 169 159 146 136 135 127 122 121 117 121 105 111 117 119 115 110 106 104
263 256 252 236 233 235 228 220 223 228 229 203 217 210 215 222 245 243 242 206 202 189 191 188 172 164 149 143 146 131 133 130 139 135 134 131 126 125 124 119 113 109 101
282 263 259 243 233 234 237 226 228 263 271 219 209 207 209 219 227 239 237 203 207 186 192 180 168 159 160 150 146 139 139 150 149 158 148 150 133 130 129 117 110 104 97
299 284 264 239 241 243 223 232 248 262 282 189 196 206 213 216 224 236 220 205 207 192 185 170 167 166 164 158 152 151 160 165 169 155 146 142 137 133 128 120 118 112 104
297 290 264 248 243 236 242 243 253 258 222 237 197 200 209 212 218 233 210 198 200 193 178 174 167 157 165 172 168 170 172 168 158 147 141 138 146 140 132 124 115 109 102
296 289 264 244 243 236 238 239 240 251 262 225 221 203 203 219 220 225 215 193 193 186 177 170 167 168 170 179 181 179 174 178 157 153 153 153 150 137 127 116 108 108 110
291 283 269 258 242 232 233 237 233 227 242 252 201 204 203 219 212 210 202 195 185 185 175 172 172 176 173 175 178 176 174 160 145 160 158 148 145 138 127 116 117 119 112
290 271 269 255 242 242 215 225 233 244 237 247 225 217 212 212 205 197 198 189 183 179 173 171 174 173 185 174 189 181 185 170 153 157 163 151 143 137 131 133 135 134 128
304 276 250 245 239 228 238 219 243 231 247 241 224 207 226 204 193 194 184 181 176 174 173 169 169 175 191 223 209 193 182 172 170 171 173 153 155 146 139 141 153 167 187
308 306 246 230 237 226 213 225 239 236 246 229 213 210 224 185 188 186 183 186 174 173 172 170 167 169 181 197 196 201 190 169 193 191 178 166 150 146 155 165 190 244 274
320 306 245 238 227 222 230 242 237 245 248 206 198 196 198 176 181 179 172 176 171 170 165 166 170 158 165 191 192 196 201 188 199 185 170 165 166 169 180 221 256 270 284
326 303 241 229 229 215 226 230 240 227 214 206 197 193 166 175 171 169 170 171 170 169 160 167 164 129 176 176 198 192 184 197 196 183 179 177 178 187 208 236 257 277 294
328 326 216 224 220 213 215 219 224 225 207 178 176 162 167 168 171 169 168 178 162 176 165 144 142 187 187 175 179 184 184 193 190 186 186 184 190 223 251 277 292 306 307
324 319 231 214 216 184 183 197 194 176 180 186 172 161 170 176 179 179 170 171 170 158 165 170 187 163 161 178 185 186 197 194 191 192 194 200 233 257 265 278 282 286 296
316 325 224 208 185 176 192 183 193 193 175 184 171 163 167 170 177 172 179 177 157 161 165 174 158 151 153 180 192 204 209 211 214 220 220 236 253 260 267 274 280 285 291
318 314 203 172 179 185 186 169 201 211 209 193 180 168 179 179 180 179 181 168 178 175 171 166 161 158 174 195 202 213 225 228 232 241 253 260 267 271 278 284 290 292 292
317 309 212 204 192 195 184 179 193 205 213 187 176 166 163 174 179 184 202 213 185 189 175 182 185 202 195 227 253 250 254 262 270 274 276 279 281 279 279 283 283 288 293
319 316 200 207 192 191 199 191 192 202 197 176 171 174 178 182 184 190 208 194 185 186 195 207 203 220 254 271 255 273 270 272 277 283 278 276 276 283 279 287 274 296 302
331 332 185 202 215 201 201 206 186 191 195 192 193 191 188 189 185 198 198 191 187 195 205 215 217 232 248 264 274 274 274 274 277 273 281 305 283 270 272 275 277 285 288
334 360 200 201 214 216 199 207 197 192 198 203 214 210 197 185 189 190 189 197 200 209 215 219 230 237 253 265 271 272 275 273 268 272 265 284 291 288 282 282 281 280 285
183 43 168 222 217 218 211 205 204 196 198 208 207 200 180 182 186 189 192 200 211 216 220 230 238 252 257 268 272 273 273 275 277 275 274 278 281 288 290 282 276 286 281
203 159 115 141 177 210 201 196 198 197 197 198 207 207 195 185 187 195 202 209 218 225 230 240 246 253 262 267 271 271 271 274 278 275 282 284 275 290 293 283 292 290 284
207 183 147 118 133 178 207 210 203 204 202 203 208 204 198 193 193 198 209 218 225 228 232 244 254 261 267 269 270 270 271 276 277 278 276 275 284 283 286 292 297 295 278
Height
3135 3135 3137 3138 3138 3139 3141 3144 3145 3147 3149 3150 3152 3153 3158 3157 3158 3161 3162 3163 3164 3164 3166 3167 3169 3169 3170 3170 3170 3172 3173 3174 3175 3176 3176 3176 3177 3177 3177 3178 3178 3178 3178
3134 3134 3134 3135 3134 3137 3138 3142 3143 3145 3147 3148 3149 3152 3154 3156 3156 3159 3161 3162 3163 3164 3166 3168 3169 3171 3171 3172 3172 3173 3174 3175 3175 3177 3177 3177 3177 3178 3178 3179 3179 3179 3179
3132 3132 3133 3133 3133 3135 3136 3139 3140 3140 3142 3144 3146 3149 3151 3153 3154 3158 3160 3162 3162 3164 3166 3167 3169 3169 3170 3171 3172 3174 3176 3177 3177 3177 3178 3179 3178 3179 3179 3179 3179 3179 3179
3129 3130 3129 3130 3129 3131 3133 3134 3135 3136 3138 3140 3142 3146 3149 3151 3153 3156 3159 3161 3162 3163 3165 3168 3169 3170 3171 3172 3173 3175 3176 3177 3178 3178 3179 3179 3179 3179 3179 3180 3180 3180 3181
3123 3124 3125 3127 3127 3130 3132 3133 3136 3137 3120 3134 3141 3142 3146 3149 3150 3155 3158 3159 3162 3163 3165 3168 3169 3171 3172 3173 3175 3176 3176 3176 3177 3177 3178 3179 3180 3180 3180 3181 3180 3181 3181
3118 3117 3118 3123 3125 3126 3128 3131 3133 3132 3128 3131 3136 3139 3142 3147 3150 3152 3156 3157 3161 3162 3165 3167 3169 3170 3172 3174 3175 3175 3175 3177 3177 3178 3179 3179 3180 3180 3180 3181 3181 3182 3182
3115 3113 3112 3117 3121 3122 3123 3126 3126 3129 3114 3120 3130 3135 3140 3143 3148 3149 3154 3157 3161 3162 3164 3167 3169 3170 3172 3174 3174 3174 3176 3177 3178 3179 3180 3179 3180 3181 3181 3182 3182 3182 3183
3111 3108 3106 3110 3115 3117 3119 3121 3122 3122 3124 3126 3125 3130 3135 3140 3145 3148 3153 3156 3160 3162 3163 3167 3168 3170 3172 3173 3174 3176 3177 3178 3179 3180 3180 3180 3181 3181 3182 3183 3183 3184 3184
3108 3106 3103 3104 3109 3112 3114 3114 3115 3116 3116 3119 3120 3126 3130 3136 3142 3147 3152 3155 3160 3161 3164 3166 3169 3171 3172 3174 3175 3175 3176 3178 3178 3180 3180 3181 3182 3182 3182 3184 3184 3185 3185
3104 3103 3102 3102 3101 3103 3108 3111 3111 3110 3111 3109 3111 3118 3123 3132 3139 3145 3151 3155 3158 3162 3164 3166 3168 3171 3172 3173 3174 3175 3176 3177 3178 3181 3181 3181 3182 3183 3184 3184 3185 3186 3186
3101 3099 3099 3098 3097 3098 3101 3104 3108 3108 3108 3109 3113 3114 3119 3127 3136 3145 3149 3154 3158 3161 3164 3166 3169 3170 3172 3173 3175 3175 3177 3178 3179 3180 3182 3182 3182 3183 3184 3185 3185 3186 3187
3097 3095 3095 3094 3095 3096 3097 3101 3104 3104 3104 3105 3105 3102 3113 3123 3133 3141 3146 3152 3156 3160 3164 3166 3168 3170 3172 3173 3175 3176 3177 3178 3179 3180 3182 3182 3183 3184 3185 3185 3186 3186 3186
3092 3089 3090 3091 3091 3094 3094 3096 3099 3098 3100 3100 3097 3099 3110 3117 3129 3137 3144 3151 3155 3159 3163 3166 3168 3170 3172 3173 3174 3176 3177 3176 3179 3180 3181 3182 3183 3184 3184 3185 3186 3185 3185
3085 3083 3083 3085 3087 3089 3090 3092 3094 3092 3093 3095 3094 3100 3107 3117 3129 3138 3143 3149 3155 3160 3163 3166 3168 3170 3171 3173 3173 3174 3176 3177 3179 3180 3180 3181 3182 3183 3183 3184 3184 3184 3184
3081 3078 3079 3082 3083 3085 3087 3088 3087 3084 3087 3090 3090 3097 3109 3121 3130 3136 3141 3147 3154 3159 3162 3165 3167 3168 3171 3171 3173 3175 3175 3177 3178 3178 3179 3180 3181 3182 3182 3182 3182 3182 3181
3078 3074 3076 3079 3080 3082 3085 3084 3082 3080 3081 3085 3091 3102 3112 3121 3128 3134 3140 3149 3152 3158 3161 3163 3165 3169 3170 3171 3173 3173 3174 3175 3176 3177 3178 3179 3180 3180 3180 3180 3180 3180 3179
3076 3073 3073 3076 3079 3081 3083 3082 3082 3084 3085 3088 3093 3105 3114 3122 3129 3134 3141 3147 3150 3155 3160 3164 3167 3168 3169 3171 3172 3172 3174 3174 3175 3176 3176 3177 3178 3179 3179 3179 3178 3177 3176
3073 3070 3070 3073 3077 3080 3082 3082 3083 3086 3090 3091 3097 3106 3115 3121 3130 3136 3140 3144 3147 3155 3160 3164 3166 3167 3168 3169 3170 3172 3173 3174 3175 3175 3175 3175 3175 3175 3176 3176 3175 3174 3173
3070 3067 3068 3071 3075 3078 3082 3083 3085 3087 3090 3094 3097 3102 3109 3120 3129 3137 3140 3144 3150 3155 3158 3162 3164 3166 3167 3169 3170 3170 3171 3172 3173 3173 3173 3173 3173 3172 3172 3173 3172 3170 3169
3067 3065 3065 3068 3072 3076 3079 3082 3085 3086 3089 3093 3098 3104 3114 3124 3130 3135 3138 3144 3148 3151 3155 3159 3161 3163 3165 3167 3168 3168 3169 3170 3171 3170 3170 3169 3170 3169 3167 3167 3168 3166 3164
3065 3063 3063 3066 3070 3073 3077 3080 3083 3086 3089 3093 3100 3107 3113 3121 3127 3132 3136 3141 3144 3148 3154 3156 3159 3161 3162 3163 3165 3167 3167 3167 3167 3167 3165 3165 3165 3165 3163 3162 3161 3161 3157
3064 3061 3062 3066 3070 3072 3076 3079 3082 3085 3089 3094 3097 3101 3109 3117 3123 3129 3135 3138 3143 3149 3151 3154 3155 3157 3158 3160 3162 3163 3164 3166 3164 3163 3162 3161 3159 3159 3158 3156 3155 3155 3153
3064 3062 3063 3064 3067 3071 3073 3077 3081 3085 3090 3092 3096 3100 3106 3114 3121 3126 3131 3138 3142 3146 3148 3151 3152 3154 3155 3157 3158 3159 3159 3161 3161 3159 3157 3156 3154 3154 3153 3151 3150 3149 3147
3064 3063 3062 3063 3066 3069 3071 3073 3078 3083 3088 3091 3095 3099 3105 3113 3118 3124 3129 3134 3139 3142 3145 3147 3149 3151 3151 3152 3152 3155 3154 3155 3154 3153 3152 3151 3149 3149 3146 3144 3144 3141 3139
3063 3063 3063 3063 3064 3067 3070 3074 3077 3081 3086 3092 3096 3100 3104 3109 3115 3121 3126 3131 3136 3139 3141 3143 3144 3147 3147 3147 3147 3148 3147 3148 3148 3148 3145 3144 3141 3142 3140 3138 3137 3134 3133
3062 3064 3064 3064 3065 3066 3069 3072 3075 3080 3084 3089 3093 3097 3101 3107 3112 3117 3123 3127 3131 3134 3137 3139 3140 3141 3142 3141 3141 3141 3141 3141 3140 3140 3138 3137 3134 3134 3132 3131 3129 3126 3124